Weather History for KEFK - October, 2012

Change the Weather History Date:

Sunday, October 14, 2012

  Actual Average Record
Temperature  
Mean Temperature 46 °F -  
Max Temperature 55 °F 58 °F 78 °F (1954)
Min Temperature 37 °F 37 °F 19 °F (1936)
Degree Days  
Heating Degree Days 19    
Moisture  
Dew Point 40 °F    
Average Humidity 79    
Maximum Humidity 82    
Minimum Humidity 52    
Precipitation  
Precipitation 0.00 in - - ()
Sea Level Pressure  
Sea Level Pressure 29.99 in    
Wind  
Wind Speed 9 mph (South)    
Max Wind Speed 14 mph    
Max Gust Speed 23 mph    
Visibility 9 miles    
Events Rain    
Averages and records for this station are not official NWS values.
T = Trace of Precipitation, MM = Missing Value Source: NWS Daily Summary

Daily Weather History Graph

Daily Weather History Graph

Search for Another Location

Airport or City:

Trip Planner

Search our weather history database for the weather conditions in past years. The results will help you decide how hot, cold, wet, or windy it might be!

Date:

Astronomy

Oct. 14, 2012 Rise Set
Actual Time 7:03 AM EDT 6:05 PM EDT
Civil Twilight 6:34 AM EDT 6:34 PM EDT
Nautical Twilight 6:00 AM EDT 7:08 PM EDT
Astronomical Twilight 5:26 AM EDT 7:42 PM EDT
Moon 5:58 AM EDT (10/14) 5:22 PM EDT (10/14)
Length of Visible Light 12h 00m
Length of Day
11h 01m
Waning Crescent, 1% of the Moon is Illuminated
Oct 14
Waning Crescent
Oct 15
New
Oct 21
First Quarter
Oct 29
Full
Nov 6
Last Quarter

Hourly Weather History & Observations

Time (EDT) Temp. Windchill Dew Point Humidity Pressure Visibility Wind Dir Wind Speed Gust Speed Precip Events Conditions
12:15 AM 43.7 °F 37.7 °F 27.1 °F 52% 30.21 in 10.0 mi SSW 11.5 mph 23.0 mph N/A   Drizzle
12:35 AM 41.2 °F 34.1 °F 31.5 °F 68% 30.22 in 7.0 mi SSW 12.7 mph 20.7 mph N/A Rain Light Rain
1:15 AM 39.2 °F 33.0 °F 32.5 °F 77% 30.21 in 4.0 mi South 9.2 mph - N/A Rain Rain
1:35 AM 38.7 °F 32.4 °F 32.5 °F 79% 30.20 in 5.0 mi SSE 9.2 mph - N/A Rain Light Rain
1:55 AM 38.3 °F 32.5 °F 32.4 °F 79% 30.19 in 5.0 mi SSE 8.1 mph - N/A Rain Rain
2:15 AM 37.9 °F 30.9 °F 32.5 °F 81% 30.17 in 5.0 mi SSE 10.4 mph - N/A Rain Rain
2:35 AM 37.8 °F 33.3 °F 32.5 °F 81% 30.15 in 7.0 mi South 5.8 mph - N/A Rain Light Rain
2:55 AM 37.4 °F 32.8 °F 32.2 °F 81% 30.13 in 7.0 mi SSE 5.8 mph - N/A Rain Light Rain
3:15 AM 37.4 °F 30.8 °F 32.2 °F 81% 30.11 in 7.0 mi SSE 9.2 mph - N/A Rain Light Rain
3:35 AM 37.9 °F 32.7 °F 32.9 °F 82% 30.10 in 7.0 mi SSE 6.9 mph - N/A Rain Rain
3:55 AM 38.3 °F 31.4 °F 32.9 °F 81% 30.08 in 10.0 mi SSE 10.4 mph - N/A Rain Rain
4:15 AM 38.3 °F 30.9 °F 32.9 °F 81% 30.06 in 5.0 mi SSE 11.5 mph - N/A Rain Light Rain
4:35 AM 38.7 °F 31.8 °F 33.1 °F 80% 30.05 in 7.0 mi SSE 10.4 mph - N/A Rain Rain
4:55 AM 39.0 °F 31.4 °F 33.3 °F 80% 30.04 in 7.0 mi SSE 12.7 mph 16.1 mph N/A   Drizzle
5:15 AM 39.2 °F 32.0 °F 33.4 °F 80% 30.05 in 5.0 mi South 11.5 mph 17.3 mph N/A Rain Light Rain
5:35 AM 39.2 °F 33.0 °F 33.4 °F 80% 30.05 in 3.0 mi SSE 9.2 mph - N/A Rain Rain
5:55 AM 39.6 °F 33.5 °F 34.0 °F 80% 30.05 in 7.0 mi SSE 9.2 mph 16.1 mph N/A Rain Light Rain
6:15 AM 39.6 °F 33.0 °F 34.0 °F 80% 30.05 in 7.0 mi SSE 10.4 mph - N/A Rain Rain
6:35 AM 39.7 °F 33.2 °F 34.2 °F 80% 30.04 in 5.0 mi SSE 10.4 mph - N/A Rain Light Rain
6:55 AM 40.1 °F 34.1 °F 34.3 °F 80% 30.04 in 10.0 mi South 9.2 mph - N/A   Light Drizzle
7:15 AM 40.3 °F 34.4 °F 34.7 °F 80% 30.03 in 10.0 mi SSE 9.2 mph - N/A   Overcast
7:35 AM 40.5 °F 34.6 °F 34.7 °F 80% 30.03 in 10.0 mi South 9.2 mph - N/A Rain Light Rain
7:55 AM 41.0 °F 35.8 °F 35.2 °F 80% 30.05 in 10.0 mi South 8.1 mph - N/A   Light Drizzle
8:15 AM 41.0 °F 37.1 °F 35.2 °F 80% 30.05 in 10.0 mi South 5.8 mph - N/A   Overcast
8:35 AM 41.4 °F 37.6 °F 35.8 °F 81% 30.04 in 10.0 mi South 5.8 mph - N/A   Overcast
8:55 AM 41.9 °F 38.2 °F 36.0 °F 79% 30.04 in 10.0 mi South 5.8 mph - N/A Rain Rain
9:15 AM 42.1 °F 39.2 °F 36.5 °F 81% 30.04 in 10.0 mi South 4.6 mph - N/A   Light Drizzle
9:35 AM 42.6 °F 39.0 °F 36.7 °F 79% 30.02 in 10.0 mi SSE 5.8 mph - N/A   Overcast
9:55 AM 43.3 °F 39.9 °F 37.6 °F 80% 30.02 in 10.0 mi South 5.8 mph - N/A   Overcast
10:15 AM 43.9 °F 42.3 °F 37.9 °F 80% 30.03 in 10.0 mi South 3.5 mph - N/A   Overcast
10:35 AM 44.2 °F 42.7 °F 38.5 °F 80% 30.03 in 10.0 mi South 3.5 mph - N/A   Overcast
10:55 AM 44.6 °F 43.1 °F 38.8 °F 80% 30.03 in 10.0 mi South 3.5 mph - N/A   Overcast
11:15 AM 45.3 °F 42.3 °F 39.4 °F 80% 30.03 in 10.0 mi South 5.8 mph - N/A   Overcast
11:35 AM 45.9 °F 43.6 °F 39.4 °F 78% 30.03 in 10.0 mi South 4.6 mph - N/A   Overcast
11:55 AM 46.2 °F 43.3 °F 40.1 °F 79% 30.02 in 10.0 mi South 5.8 mph - N/A   Overcast
12:15 PM 46.4 °F 43.5 °F 40.1 °F 79% 30.02 in 10.0 mi South 5.8 mph - N/A   Overcast
12:35 PM 46.4 °F 42.9 °F 40.3 °F 79% 30.01 in 10.0 mi South 6.9 mph - N/A   Overcast
12:55 PM 46.8 °F - 40.3 °F 78% 30.00 in 10.0 mi South 5.8 mph - N/A   Overcast
1:15 PM 47.3 °F - 40.8 °F 78% 29.99 in 10.0 mi South 4.6 mph - N/A   Overcast
1:35 PM 47.5 °F - 41.0 °F 78% 29.98 in 10.0 mi SSE 6.9 mph - N/A   Overcast
1:55 PM 47.5 °F - 41.4 °F 79% 29.97 in 7.0 mi South 6.9 mph - N/A   Overcast
2:15 PM 47.7 °F - 41.9 °F 80% 29.97 in 10.0 mi SSE 4.6 mph - N/A   Overcast
2:35 PM 48.2 °F - 41.9 °F 79% 29.97 in 10.0 mi South 6.9 mph - N/A   Overcast
2:55 PM 48.4 °F - 42.1 °F 79% 29.96 in 10.0 mi South 9.2 mph - N/A   Overcast
3:15 PM 48.6 °F - 42.8 °F 80% 29.95 in 5.0 mi SSE 6.9 mph - N/A   Haze
3:35 PM 48.7 °F - 43.2 °F 81% 29.95 in 4.0 mi SSE 6.9 mph - N/A   Drizzle
4:15 PM 49.1 °F - 43.7 °F 82% 29.93 in 10.0 mi South 4.6 mph - N/A   Overcast
4:35 PM 49.5 °F - 43.7 °F 81% 29.92 in 10.0 mi SSE 6.9 mph - N/A   Overcast
4:55 PM 50.0 °F - 43.7 °F 79% 29.92 in 10.0 mi SSE 8.1 mph - N/A Rain Light Rain
5:15 PM 50.0 °F - 43.7 °F 79% 29.93 in 10.0 mi SSE 6.9 mph - N/A   Overcast
5:35 PM 50.0 °F - 44.1 °F 80% 29.92 in 10.0 mi South 8.1 mph - N/A   Overcast
5:55 PM 50.2 °F - 44.2 °F 80% 29.91 in 10.0 mi SSE 10.4 mph - N/A   Overcast
6:15 PM 50.7 °F - 44.6 °F 80% 29.91 in 10.0 mi South 8.1 mph - N/A   Overcast
6:35 PM 51.3 °F - 44.8 °F 78% 29.91 in 10.0 mi South 9.2 mph - N/A   Overcast
6:55 PM 51.8 °F - 45.5 °F 79% 29.90 in 10.0 mi SSE 10.4 mph - N/A   Overcast
7:15 PM 52.0 °F - 45.7 °F 79% 29.89 in 10.0 mi SSE 5.8 mph - N/A   Overcast
7:35 PM 52.0 °F - 45.7 °F 79% 29.89 in 10.0 mi South 9.2 mph - N/A   Overcast
7:55 PM 52.7 °F - 46.4 °F 79% 29.88 in 10.0 mi South 9.2 mph 16.1 mph N/A   Overcast
8:15 PM 53.2 °F - 46.8 °F 79% 29.87 in 10.0 mi South 11.5 mph - N/A   Mostly Cloudy
8:35 PM 53.6 °F - 46.9 °F 78% 29.87 in 10.0 mi South 8.1 mph - N/A   Mostly Cloudy
8:55 PM 54.0 °F - 47.3 °F 78% 29.86 in 10.0 mi South 8.1 mph - N/A   Overcast
9:15 PM 54.3 °F - 47.5 °F 78% 29.85 in 10.0 mi South 10.4 mph - N/A   Overcast
9:35 PM 54.5 °F - 47.8 °F 78% 29.84 in 10.0 mi SSE 13.8 mph - N/A   Overcast
9:55 PM 54.5 °F - 47.8 °F 78% 29.84 in 10.0 mi South 10.4 mph 16.1 mph N/A   Overcast
10:15 PM 54.7 °F - 48.4 °F 79% 29.84 in 10.0 mi South 9.2 mph - N/A   Overcast
10:35 PM 55.0 °F - 48.6 °F 79% 29.84 in 10.0 mi South 9.2 mph - N/A   Overcast
10:55 PM 54.9 °F - 48.6 °F 79% 29.83 in 10.0 mi SSE 11.5 mph - N/A   Overcast
11:15 PM 54.7 °F - 48.7 °F 80% 29.83 in 10.0 mi South 8.1 mph - N/A   Mostly Cloudy
11:35 PM 54.7 °F - 48.6 °F 80% 29.81 in 10.0 mi South 8.1 mph - N/A   Scattered Clouds
11:55 PM 55.0 °F - 48.7 °F 79% 29.81 in 10.0 mi South 5.8 mph - N/A   Clear